Flag for Australia Weather past 2 weeks in The Settlement, Christmas Island, Australia

Now
77 °F

Broken clouds.


Feels Like: 78 °F
Forecast: 77 / 80 °F
Wind: 3 mph from Northwest

Location: Christmas Island Aerodrome

Current Time: Dec 22, 2014 at 5:10:50 PM

Latest Report: Dec 22, 2014 at 4:00 PM


Visibility: N/A

Pressure: 29.77 "Hg

Humidity: 89%

Dew point: 73 °F

Location of The SettlementLocation

Historic Weather in The Settlement — Graph

°F

The Settlement temperature yesterday

Maximum temperature yesterday: 82 °F (at 12:03 PM)
Minimum temperature yesterday: 75 °F (at 5:00 AM)
Average temperature yesterday: 78 °F

Past Weeks' High & Low Weather Summary

 TemperatureHumidityPressure
High84 °F (Dec 16, 12:00 PM)100% (Dec 7, 9:00 PM)29.95 "Hg (Dec 7, 9:00 PM)
Low72 °F (Dec 8, 5:00 AM)70% (Dec 11, 11:00 AM)29.74 "Hg (Dec 21, 4:00 PM)
Average77 °F90%29.86 "Hg
* Reported Dec 7 4:00 PM — Dec 22 4:00 PM, The Settlement, Weather by CustomWeather, © 2014

Note: Actual official high and low records may vary slightly from our data, if they occured in-between our weather recording intervals... More about our weather records

Advertising

The Settlement weather history for previous 24 hours

 ConditionsComfort  
Time TempWeatherWind HumidityBarometerVisibility
4:00 PM
Dec 22
77 °FBroken clouds.3 mph89%29.77 "HgN/A
3:00 PM77 °FDrizzle. Broken clouds.6 mph94%29.77 "HgN/A
2:00 PM77 °FRain showers. Broken clouds.5 mph89%29.77 "HgN/A
1:03 PM79 °FCloudy.7 mph89%29.80 "HgN/A
12:00 PM77 °FScattered clouds.7 mph89%29.83 "HgN/A
11:58 AM77 °FSprinkles. Scattered clouds.7 mph89%29.83 "HgN/A
11:00 AM81 °FMostly cloudy.8 mph84%29.83 "HgN/A
10:00 AM81 °FMostly cloudy.7 mph89%29.86 "HgN/A
9:00 AM81 °FMore clouds than sun.6 mph84%29.86 "HgN/A
8:00 AM79 °FBroken clouds.6 mph89%29.83 "HgN/A
7:00 AM77 °FPartly sunny.5 mph94%29.80 "HgN/A
6:00 AM77 °FScattered clouds.2 mph94%29.80 "HgN/A
5:00 AM75 °FMostly cloudy.No wind100%29.77 "Hg4 mi
4:00 AM75 °FSprinkles. Mostly cloudy.No wind100%29.77 "HgN/A
3:00 AM75 °FSprinkles. Passing clouds.No wind100%29.77 "HgN/A
2:30 AM75 °FPassing clouds.3 mph100%29.77 "HgN/A
2:00 AM75 °FDrizzle. Mostly cloudy.2 mph94%29.80 "HgN/A
1:04 AM75 °FLots of rain. Overcast.2 mph94%29.80 "Hg2 mi
12:30 AM75 °FLight rain. Partly cloudy.6 mph100%29.83 "Hg1 mi
12:00 AM75 °FPartly cloudy.No wind100%29.83 "HgN/A
11:00 PM
Dec 21
77 °FMostly cloudy.No wind94%29.83 "HgN/A
10:00 PM77 °FSprinkles. Low clouds.3 mph94%29.86 "HgN/A
9:00 PM75 °FLight rain. Partly cloudy.No wind94%29.83 "HgN/A
8:57 PM75 °FRain. Passing clouds.No wind100%29.83 "HgN/A
8:02 PM75 °FSprinkles. Passing clouds.3 mph94%29.83 "HgN/A
7:00 PM75 °FSprinkles. Overcast.5 mph100%29.80 "Hg5 mi
6:00 PM75 °FLots of rain. Cloudy.3 mph100%29.80 "Hg2 mi
5:00 PM77 °FLots of rain. Cloudy.5 mph94%29.77 "Hg3 mi
Weather by CustomWeather, © 2014

See weather overviewHow to use our weather pages